MLP365 LWSK-LIMC

Flight info

Callsign MLP365
Flight time N/A
Altitude 38000
Route GOSTI DCT MAVAR DCT RETRA DCT ROTAR DCT VIC DCT VADIK DCT ADOSA DCT IDREK DCT ELTAR DCT NOBMI DCT PEXUG
Aircraft A319/M-SDE3FGHIRWY/LB1

Departure

Time 2026-05-06 14:08
Airport Skopje International Airport (LWSK)

Arrival

Time N/A
Airport Milan Malpensa International Airport (LIMC)
Time Latitude Longitude Altitude Speed Heading
2026-05-06 13:42 41.96144 21.62569 812 ft 0 kts 76°
2026-05-06 13:58 41.96140 21.62542 793 ft 4 kts 73°
2026-05-06 13:58 41.96128 21.62518 793 ft 4 kts 32°
2026-05-06 13:58 41.96104 21.62510 793 ft 4 kts 342°
2026-05-06 13:58 41.96086 21.62519 793 ft 0 kts 346°
2026-05-06 14:01 41.96090 21.62517 793 ft 2 kts 346°
2026-05-06 14:01 41.96124 21.62493 793 ft 6 kts 300°
2026-05-06 14:01 41.96106 21.62437 792 ft 8 kts 206°
2026-05-06 14:01 41.96049 21.62453 791 ft 9 kts 164°
2026-05-06 14:02 41.95986 21.62475 791 ft 10 kts 164°
2026-05-06 14:02 41.95918 21.62500 791 ft 11 kts 166°
2026-05-06 14:02 41.95841 21.62527 790 ft 13 kts 165°
2026-05-06 14:02 41.95747 21.62558 787 ft 15 kts 166°
2026-05-06 14:03 41.95636 21.62596 786 ft 17 kts 165°
2026-05-06 14:03 41.95519 21.62639 785 ft 18 kts 164°
2026-05-06 14:03 41.95393 21.62687 783 ft 19 kts 165°
2026-05-06 14:03 41.95255 21.62730 780 ft 21 kts 166°
2026-05-06 14:04 41.95157 21.62745 778 ft 13 kts 212°
2026-05-06 14:04 41.95136 21.62671 778 ft 0 kts 256°
2026-05-06 14:05 41.95136 21.62670 778 ft 1 kts 256°
2026-05-06 14:05 41.95128 21.62626 778 ft 10 kts 256°
2026-05-06 14:05 41.95095 21.62510 781 ft 10 kts 236°
2026-05-06 14:06 41.95065 21.62504 781 ft 6 kts 146°
2026-05-06 14:06 41.94980 21.62555 780 ft 18 kts 165°
2026-05-06 14:06 41.94854 21.62598 779 ft 17 kts 166°
2026-05-06 14:06 41.94758 21.62689 778 ft 18 kts 133°
2026-05-06 14:07 41.94677 21.62701 775 ft 12 kts 251°
2026-05-06 14:07 41.94729 21.62644 778 ft 10 kts 344°
2026-05-06 14:07 41.94933 21.62571 779 ft 65 kts 345°
2026-05-06 14:07 41.95602 21.62339 784 ft 130 kts 345°
2026-05-06 14:08 41.96652 21.61974 831 ft 176 kts 345°
2026-05-06 14:08 41.97834 21.61583 1456 ft 171 kts 347°
2026-05-06 14:08 41.98981 21.61199 2171 ft 169 kts 346°
2026-05-06 14:08 42.00146 21.60804 2685 ft 182 kts 348°
2026-05-06 14:09 42.01451 21.61081 3014 ft 206 kts 33°
2026-05-06 14:09 42.02325 21.62668 3349 ft 226 kts 76°
2026-05-06 14:09 42.02182 21.64833 3724 ft 247 kts 118°
2026-05-06 14:09 42.00973 21.66456 4497 ft 253 kts 156°
2026-05-06 14:10 41.99267 21.66766 5408 ft 256 kts 190°
2026-05-06 14:10 41.97565 21.66049 6416 ft 258 kts 204°
2026-05-06 14:10 41.95929 21.65026 7350 ft 261 kts 207°
2026-05-06 14:10 41.94325 21.63854 8261 ft 265 kts 219°
2026-05-06 14:11 41.93213 21.61883 9090 ft 272 kts 246°
2026-05-06 14:11 41.92649 21.59409 9894 ft 280 kts 255°
2026-05-06 14:11 41.92087 21.56833 10420 ft 299 kts 253°
2026-05-06 14:11 41.91447 21.54076 10834 ft 318 kts 252°
2026-05-06 14:12 41.90765 21.51208 11556 ft 325 kts 252°
2026-05-06 14:12 41.90069 21.48301 12377 ft 330 kts 253°
2026-05-06 14:12 41.89364 21.45344 13186 ft 334 kts 253°
2026-05-06 14:12 41.88654 21.42349 13969 ft 339 kts 253°
2026-05-06 14:13 41.87944 21.39357 14697 ft 342 kts 253°
2026-05-06 14:13 41.87220 21.36300 15456 ft 344 kts 253°
2026-05-06 14:13 41.86493 21.33225 16184 ft 348 kts 253°
2026-05-06 14:13 41.85758 21.30123 16902 ft 350 kts 253°
2026-05-06 14:14 41.85018 21.27002 17608 ft 353 kts 253°
2026-05-06 14:14 41.84268 21.23846 18323 ft 356 kts 253°
2026-05-06 14:14 41.83517 21.20661 18946 ft 359 kts 255°
2026-05-06 14:14 41.83164 21.17350 19560 ft 361 kts 272°
2026-05-06 14:15 41.83601 21.14040 20172 ft 362 kts 286°
2026-05-06 14:15 41.84319 21.10795 20803 ft 364 kts 286°
2026-05-06 14:15 41.85058 21.07540 21439 ft 365 kts 287°
2026-05-06 14:15 41.85807 21.04275 22082 ft 367 kts 287°
2026-05-06 14:16 41.86558 21.00993 22747 ft 369 kts 287°
2026-05-06 14:16 41.87309 20.97692 23401 ft 371 kts 287°
2026-05-06 14:16 41.88057 20.94372 23930 ft 373 kts 286°
2026-05-06 14:16 41.88806 20.91034 24410 ft 375 kts 286°
2026-05-06 14:17 41.89558 20.87671 24873 ft 377 kts 286°
2026-05-06 14:17 41.90315 20.84278 25317 ft 380 kts 286°
2026-05-06 14:17 41.91075 20.80865 25784 ft 382 kts 286°
2026-05-06 14:17 41.91840 20.77433 26223 ft 385 kts 286°
2026-05-06 14:18 41.92608 20.73979 26672 ft 387 kts 286°
2026-05-06 14:18 41.93375 20.70505 27108 ft 390 kts 286°
2026-05-06 14:18 41.94138 20.67048 27548 ft 392 kts 286°
2026-05-06 14:18 41.94918 20.63529 28001 ft 394 kts 286°
2026-05-06 14:19 41.95703 20.59990 28438 ft 397 kts 285°
2026-05-06 14:19 41.96491 20.56429 28853 ft 399 kts 285°
2026-05-06 14:19 41.97286 20.52837 29261 ft 402 kts 285°
2026-05-06 14:19 41.98085 20.49222 29680 ft 404 kts 285°
2026-05-06 14:20 41.98883 20.45581 30079 ft 407 kts 285°
2026-05-06 14:20 41.99681 20.41916 30430 ft 409 kts 285°
2026-05-06 14:20 42.00485 20.38231 30750 ft 411 kts 285°
2026-05-06 14:20 42.01293 20.34532 31085 ft 413 kts 285°
2026-05-06 14:21 42.02104 20.30812 31413 ft 415 kts 285°
2026-05-06 14:21 42.02916 20.27078 31718 ft 417 kts 285°
2026-05-06 14:21 42.03731 20.23332 32094 ft 417 kts 285°
2026-05-06 14:21 42.04545 20.19595 32565 ft 415 kts 285°
2026-05-06 14:22 42.05356 20.15868 33035 ft 414 kts 285°
2026-05-06 14:22 42.06159 20.12163 33492 ft 412 kts 285°
2026-05-06 14:22 42.06957 20.08463 33954 ft 411 kts 285°
2026-05-06 14:22 42.07740 20.04829 34374 ft 410 kts 284°
2026-05-06 14:23 42.08532 20.01148 34747 ft 409 kts 284°
2026-05-06 14:23 42.09322 19.97468 35095 ft 408 kts 284°
2026-05-06 14:23 42.10108 19.93793 35457 ft 408 kts 284°
2026-05-06 14:23 42.10893 19.90132 35815 ft 407 kts 284°
2026-05-06 14:24 42.11677 19.86470 36155 ft 407 kts 284°
2026-05-06 14:24 42.12456 19.82815 36487 ft 406 kts 284°
2026-05-06 14:24 42.13237 19.79149 36751 ft 406 kts 284°
2026-05-06 14:24 42.14015 19.75490 37025 ft 407 kts 284°
2026-05-06 14:25 42.15566 19.68171 37095 ft 405 kts 284°
2026-05-06 14:25 42.17106 19.60857 37099 ft 406 kts 284°
2026-05-06 14:26 42.18647 19.53537 37097 ft 405 kts 284°
2026-05-06 14:26 42.20179 19.46226 37105 ft 405 kts 284°
2026-05-06 14:27 42.21693 19.38961 37107 ft 405 kts 284°
2026-05-06 14:27 42.23762 19.31890 37108 ft 409 kts 298°
2026-05-06 14:28 42.27056 19.25571 37107 ft 411 kts 303°
2026-05-06 14:28 42.30391 19.19286 37112 ft 412 kts 302°
2026-05-06 14:29 42.33717 19.12983 37115 ft 412 kts 302°
2026-05-06 14:29 42.35380 19.09834 37241 ft 411 kts 302°
2026-05-06 14:29 42.37042 19.06691 37510 ft 412 kts 302°
2026-05-06 14:30 42.38709 19.03536 37785 ft 412 kts 302°
2026-05-06 14:30 42.39809 19.01450 37965 ft 412 kts 302°
2026-05-06 14:30 42.41472 18.98289 38074 ft 411 kts 302°
2026-05-06 14:30 42.43127 18.95133 38086 ft 410 kts 302°
2026-05-06 14:31 42.46960 18.87799 38086 ft 410 kts 302°
2026-05-06 14:31 42.49721 18.82511 38086 ft 410 kts 302°
2026-05-06 14:32 42.53001 18.76250 38086 ft 410 kts 302°
2026-05-06 14:32 42.56302 18.69939 38089 ft 411 kts 302°
2026-05-06 14:33 42.59592 18.63611 38094 ft 410 kts 302°
2026-05-06 14:33 42.62879 18.57270 38093 ft 410 kts 302°
2026-05-06 14:34 42.66164 18.50925 38092 ft 410 kts 302°
2026-05-06 14:34 42.69451 18.44577 38085 ft 410 kts 302°
2026-05-06 14:35 42.72726 18.38226 38082 ft 410 kts 302°
2026-05-06 14:35 42.75994 18.31865 38080 ft 410 kts 302°
2026-05-06 14:36 42.79267 18.25495 38077 ft 410 kts 302°
2026-05-06 14:36 42.82520 18.19155 38070 ft 411 kts 301°
2026-05-06 14:37 42.85790 18.12769 38066 ft 411 kts 301°
2026-05-06 14:37 42.89057 18.06363 38062 ft 412 kts 301°
2026-05-06 14:38 42.92330 17.99935 38062 ft 412 kts 301°
2026-05-06 14:38 42.95597 17.93503 38054 ft 413 kts 301°
2026-05-06 14:39 42.98866 17.87050 38054 ft 413 kts 301°
2026-05-06 14:39 43.02137 17.80594 38060 ft 413 kts 301°
2026-05-06 14:40 43.05383 17.74175 38060 ft 413 kts 301°
2026-05-06 14:40 43.08646 17.67696 38061 ft 413 kts 301°
2026-05-06 14:41 43.11904 17.61213 38060 ft 413 kts 301°
2026-05-06 14:41 43.15160 17.54721 38061 ft 413 kts 300°
2026-05-06 14:42 43.18405 17.48217 38056 ft 413 kts 300°
2026-05-06 14:42 43.21635 17.41746 38051 ft 413 kts 300°
2026-05-06 14:43 43.24883 17.35234 38053 ft 414 kts 300°
2026-05-06 14:43 43.28126 17.28714 38042 ft 413 kts 300°
2026-05-06 14:44 43.31363 17.22186 38044 ft 414 kts 300°
2026-05-06 14:45 43.36210 17.12374 38058 ft 414 kts 300°
2026-05-06 14:45 43.39446 17.05821 38060 ft 414 kts 300°
2026-05-06 14:46 43.42677 16.99259 38044 ft 414 kts 299°
2026-05-06 14:46 43.45908 16.92698 38047 ft 414 kts 299°
2026-05-06 14:47 43.49135 16.86114 38049 ft 414 kts 299°
2026-05-06 14:47 43.52357 16.79525 38052 ft 415 kts 299°
2026-05-06 14:48 43.55576 16.72927 38047 ft 415 kts 299°
2026-05-06 14:48 43.58783 16.66319 38038 ft 414 kts 299°
2026-05-06 14:49 43.61980 16.59741 38041 ft 414 kts 299°
2026-05-06 14:49 43.65189 16.53125 38036 ft 414 kts 298°
2026-05-06 14:50 43.68390 16.46498 38038 ft 414 kts 298°
2026-05-06 14:50 43.71595 16.39870 38039 ft 414 kts 298°
2026-05-06 14:51 43.74788 16.33236 38038 ft 414 kts 298°
2026-05-06 14:51 43.77972 16.26593 38031 ft 414 kts 298°
2026-05-06 14:52 43.81158 16.19943 38032 ft 415 kts 298°
2026-05-06 14:52 43.84337 16.13289 38023 ft 414 kts 298°
2026-05-06 14:53 43.87486 16.06684 38017 ft 413 kts 298°
2026-05-06 14:53 43.90657 16.00032 38011 ft 413 kts 298°
2026-05-06 14:54 43.93817 15.93374 38011 ft 413 kts 298°
2026-05-06 14:54 43.96980 15.86698 38011 ft 413 kts 298°
2026-05-06 14:55 44.00135 15.80019 38009 ft 414 kts 298°
2026-05-06 14:55 44.03289 15.73335 38002 ft 414 kts 298°
2026-05-06 14:56 44.06444 15.66636 38009 ft 414 kts 298°
2026-05-06 14:56 44.09599 15.59924 38008 ft 414 kts 298°
2026-05-06 14:57 44.12720 15.53249 38009 ft 414 kts 298°
2026-05-06 14:57 44.15861 15.46518 38014 ft 414 kts 298°
2026-05-06 14:58 44.19001 15.39768 38016 ft 414 kts 297°
2026-05-06 14:58 44.22137 15.33017 38013 ft 415 kts 298°
2026-05-06 14:59 44.25273 15.26265 38006 ft 415 kts 298°
2026-05-06 14:59 44.28410 15.19510 38000 ft 415 kts 297°
2026-05-06 15:00 44.31523 15.12765 38004 ft 415 kts 297°
2026-05-06 15:00 44.34642 15.05977 37990 ft 415 kts 297°
2026-05-06 15:01 44.37760 14.99185 37987 ft 415 kts 297°
2026-05-06 15:01 44.40879 14.92376 37988 ft 415 kts 297°
2026-05-06 15:02 44.44003 14.85562 37985 ft 416 kts 297°
2026-05-06 15:02 44.47100 14.78788 37988 ft 416 kts 297°
2026-05-06 15:03 44.50206 14.71957 37980 ft 416 kts 297°
2026-05-06 15:03 44.53317 14.65122 37976 ft 416 kts 297°
2026-05-06 15:04 44.56422 14.58273 37977 ft 416 kts 297°
2026-05-06 15:04 44.59518 14.51414 37980 ft 416 kts 297°
2026-05-06 15:05 44.62617 14.44541 37978 ft 416 kts 297°
2026-05-06 15:05 44.65705 14.37665 37977 ft 416 kts 297°
2026-05-06 15:06 44.68794 14.30770 37975 ft 417 kts 297°
2026-05-06 15:06 44.71865 14.23911 37972 ft 417 kts 297°
2026-05-06 15:07 44.74956 14.17004 37978 ft 417 kts 297°
2026-05-06 15:07 44.78039 14.10084 37961 ft 417 kts 297°
2026-05-06 15:08 44.81118 14.03155 37957 ft 417 kts 297°
2026-05-06 15:08 44.84195 13.96222 37954 ft 417 kts 297°
2026-05-06 15:09 44.87266 13.89276 37955 ft 418 kts 296°
2026-05-06 15:09 44.90339 13.82319 37956 ft 418 kts 296°
2026-05-06 15:10 44.93406 13.75350 37953 ft 418 kts 296°
2026-05-06 15:10 44.96470 13.68366 37947 ft 418 kts 296°
2026-05-06 15:11 44.99530 13.61386 37951 ft 418 kts 296°
2026-05-06 15:11 45.02584 13.54398 37946 ft 418 kts 296°